Location: Milton
(43.5183°N, 79.8775°W)
Time: 09:31:35
(UTC+00:00)

COSMOS 2251 DEB - Visible Passes

Search period start: 08 December 2023 00:00
Search period end: 18 December 2023 00:00
Orbit: 708 x 768 km, 74.0° (Epoch: 07 December)

Date Brightness Start Highest point End Pass type
(mag) Time Alt. Az. Time Alt. Az. Time Alt. Az.
08 Dec ? 10:48:29 10° N 10:52:22 21° NE 10:56:15 10° ESE visible
09 Dec ? 10:04:06 10° NNE 10:05:48 11° NE 10:07:31 10° ENE visible
09 Dec ? 11:42:59 10° NNW 11:48:10 72° ENE 11:53:23 10° SSE visible
10 Dec ? 10:57:14 10° N 11:02:01 37° ENE 11:06:49 10° SE visible
11 Dec ? 10:11:51 10° N 10:15:39 20° NE 10:19:27 10° ESE visible
11 Dec ? 11:52:23 10° NNW 11:57:29 60° WSW 12:02:36 10° S visible
12 Dec ? 09:27:40 10° NNE 09:29:04 11° NE 09:30:28 10° ENE visible
12 Dec ? 11:06:18 10° NNW 11:11:29 69° ENE 11:16:41 10° SSE visible
13 Dec ? 10:21:15 13° N 10:25:19 35° ENE 10:30:05 10° SE visible
13 Dec ? 12:02:06 10° NW 12:06:38 31° W 12:11:11 10° SSW visible
14 Dec ? 09:36:36 15° NNE 09:38:55 19° NE 09:42:38 10° E visible
14 Dec ? 11:16:17 13° NNW 11:20:48 63° WSW 11:25:58 10° S visible
15 Dec ? 08:52:01 10° NE 08:52:19 10° NE 08:53:18 10° ENE visible
15 Dec ? 10:31:42 24° N 10:34:47 65° ENE 10:40:00 10° SSE visible
15 Dec ? 12:12:30 10° WNW 12:15:38 16° W 12:18:46 10° SW visible
16 Dec ? 01:02:25 10° SSW 01:03:01 13° SSW 01:03:01 13° SSW visible
16 Dec ? 09:47:12 29° NNE 09:48:36 33° ENE 09:53:19 10° SE visible
16 Dec ? 11:26:53 18° NW 11:29:58 33° W 11:34:35 10° SSW visible
17 Dec ? 00:16:27 10° S 00:18:52 29° S 00:18:52 29° S visible
17 Dec ? 09:02:47 18° ENE 09:02:47 18° ENE 09:05:47 10° E visible
17 Dec ? 10:42:28 42° NW 10:44:07 67° WSW 10:49:19 10° S visible
17 Dec ? 23:31:15 10° SSE 23:34:40 28° ESE 23:34:40 28° ESE visible
